SCP
2 2 3 3 3 3 2 2 2 2 2 1 1 1 1 1 1 1 1 1 1 1 1 1 1 1 1 1 0 0 0 0 0 0 0 0 0 0 0 0 0 0 0
3 3 3 3 3 3 2 2 2 2 2 1 1 1 1 1 1 1 1 1 1 1 1 1 1 1 1 1 0 0 0 0 0 0 0 0 0 0 0 0 0 0 0
3 3 3 3 3 3 2 2 2 2 2 1 1 1 1 1 1 1 1 1 1 1 1 1 1 1 1 1 0 0 0 1 1 1 1 1 0 0 0 0 0 0 0
2 2 2 2 2 2 2 2 2 2 1 1 1 1 1 1 1 1 1 1 1 1 1 1 1 1 1 1 0 0 1 1 1 1 1 1 1 1 0 0 0 0 0
2 2 2 2 2 2 2 2 1 1 1 1 1 1 1 1 1 1 1 1 1 1 1 1 1 1 1 1 0 1 1 1 1 1 1 1 1 1 0 0 0 0 0
1 1 1 2 2 2 1 1 1 1 1 1 1 1 1 1 1 1 1 1 1 1 1 1 1 1 1 0 0 0 0 1 1 1 1 1 1 1 0 0 0 0 0
1 1 1 1 1 1 1 1 1 1 1 1 1 1 1 1 0 1 1 0 0 0 1 1 1 1 1 0 0 0 0 0 0 0 0 0 0 0 0 0 0 0 0
1 1 1 1 1 1 1 1 1 1 1 1 1 1 0 0 0 0 0 0 0 0 0 1 1 1 1 0 0 0 0 0 0 0 0 0 0 0 0 0 0 0 0
0 0 0 1 1 1 1 1 1 1 1 0 0 0 0 0 0 0 0 0 0 0 0 1 1 1 1 0 0 0 0 0 0 0 0 0 0 0 0 0 0 0 0
0 0 0 0 0 0 1 1 1 1 1 0 0 0 0 0 0 0 0 0 0 0 0 0 1 1 1 1 0 0 0 0 0 0 0 0 0 0 0 0 0 0 0
0 0 0 0 0 0 0 0 0 1 1 1 1 1 0 1 1 0 0 0 0 0 0 0 0 1 1 1 0 0 0 0 0 0 0 0 0 0 0 0 0 0 0
0 0 0 0 0 0 0 0 0 0 0 0 1 1 1 1 1 1 0 0 0 0 0 0 0 1 1 1 0 0 0 0 0 0 0 0 0 0 0 0 0 0 0
0 0 0 0 0 0 0 0 0 0 0 0 0 0 1 1 1 1 1 1 1 1 1 1 1 1 1 1 0 0 0 0 0 0 0 0 0 0 0 0 0 0 0
0 0 0 0 0 0 0 0 0 0 0 0 0 0 0 0 1 1 1 1 1 1 1 1 1 1 1 1 0 0 0 0 0 0 0 0 0 0 0 0 0 0 0
0 0 0 0 0 0 0 0 0 0 0 0 0 0 0 0 0 1 1 1 1 1 1 1 1 1 1 1 0 0 0 0 0 0 0 0 0 0 0 0 0 0 0
0 0 0 0 0 0 0 0 0 0 0 0 0 0 0 0 0 0 1 1 1 1 1 1 1 1 1 1 0 0 0 0 0 0 0 0 0 0 0 0 0 0 0
0 0 0 0 0 0 0 0 0 0 0 0 0 0 0 0 0 0 0 1 1 1 1 1 1 1 1 1 0 0 0 0 0 0 0 0 0 0 0 0 0 0 0
0 0 0 0 0 0 0 0 0 0 0 0 0 0 0 0 0 0 0 0 0 0 1 1 1 1 1 1 0 0 0 0 0 0 0 0 0 0 0 0 0 0 0
0 0 0 0 0 0 0 0 0 0 0 0 0 0 0 0 0 0 0 0 0 0 0 0 1 1 1 1 0 0 0 0 0 0 0 0 0 0 0 0 0 0 0
0 0 0 0 0 0 0 0 0 0 0 0 0 0 0 0 0 0 0 0 0 0 0 0 0 1 1 1 0 0 0 0 0 0 0 0 0 0 0 0 0 0 0
0 0 0 0 0 0 0 0 0 0 0 0 0 0 0 0 0 0 0 0 0 0 0 0 0 0 0 0 0 0 0 0 0 0 0 0 0 0 0 0 0 0 0
0 0 0 0 0 0 0 0 0 0 0 0 0 0 0 0 0 0 0 0 0 0 0 0 0 0 0 0 0 0 0 0 0 0 0 0 0 0 0 0 0 0 0
0 0 0 0 0 0 0 0 0 0 0 0 0 0 0 0 0 0 0 0 0 0 0 0 0 0 0 0 0 0 0 0 0 0 0 0 0 0 0 0 0 0 0
0 0 0 0 0 0 0 0 0 0 0 0 0 0 0 0 0 0 0 0 0 0 0 0 0 0 0 0 0 0 0 0 0 0 0 0 0 0 0 0 0 0 0
0 0 0 0 0 0 0 0 0 0 0 0 0 0 0 0 0 0 0 0 0 0 0 0 0 0 0 0 0 0 0 0 0 0 0 0 0 0 0 0 0 0 0
0 0 0 0 0 0 0 0 0 0 0 0 0 0 0 0 0 0 0 0 0 0 0 0 0 0 0 0 0 0 0 0 0 0 0 0 0 0 0 0 0 0 0
Wind_Speed
4 4 3 2 4 4 6 6 5 6 7 7 7 7 8 8 8 6 4 15 17 16 17 18 18 18 17 16 16 16 17 17 16 16 16 15 14 13 13 12 12 12 11
3 3 4 4 4 4 3 3 5 4 5 5 6 7 7 7 7 6 5 10 16 17 17 18 18 19 19 18 17 17 17 17 17 17 17 16 16 15 14 14 13 13 12
4 4 4 5 5 5 4 4 5 4 5 6 7 8 6 7 7 7 6 5 8 16 18 18 18 18 19 19 19 18 18 17 17 17 18 17 17 16 16 15 14 14 13
4 5 5 6 5 5 4 4 4 4 4 5 5 6 6 6 8 8 7 6 6 8 14 20 19 19 19 20 20 19 18 18 18 18 18 18 18 17 16 16 16 15 14
4 4 4 5 5 4 4 6 4 4 5 5 6 6 6 6 7 9 9 9 8 8 7 15 20 20 20 21 20 19 19 18 18 18 19 19 19 18 17 17 17 16 15
4 4 4 4 5 4 4 5 4 4 4 4 7 6 5 6 6 7 9 8 8 10 9 10 11 14 19 19 19 18 19 19 18 19 19 19 19 18 18 17 17 17 17
4 3 4 4 4 4 5 5 5 5 5 4 4 4 5 7 7 6 6 6 8 9 9 8 8 8 9 17 18 18 18 19 18 18 19 19 19 18 18 18 17 17 17
3 4 3 3 3 4 4 4 4 3 4 4 4 3 4 4 5 9 6 6 6 5 6 9 8 8 6 6 11 18 18 17 18 17 17 17 18 17 18 18 17 17 17
2 3 3 3 3 3 3 3 4 4 4 3 4 4 3 2 2 4 6 6 6 4 4 5 8 8 7 5 7 13 16 14 15 16 16 16 16 17 17 18 18 17 17
3 3 2 2 2 2 2 3 3 3 3 4 3 4 4 2 1 0 3 4 5 4 3 3 5 7 6 4 5 10 14 13 13 14 14 14 15 16 16 17 18 18 17
4 3 2 1 2 2 2 2 3 3 2 3 3 3 4 4 4 2 2 2 3 3 3 3 2 3 5 5 4 7 12 12 11 11 11 12 14 15 16 17 18 18 18
4 4 4 3 2 1 1 1 2 2 2 3 3 3 2 2 2 3 3 4 4 4 5 4 4 3 3 4 6 10 10 9 8 8 8 9 10 12 13 16 17 17 18
3 3 3 3 2 2 2 2 2 2 2 3 3 3 3 3 3 3 2 3 4 3 4 4 4 4 5 6 7 11 8 7 6 6 6 6 6 8 9 10 12 14 14
5 5 3 4 4 4 4 3 2 3 2 3 4 3 3 3 2 3 2 2 2 2 2 4 4 5 5 7 9 9 7 7 6 5 5 5 5 5 5 6 7 8 9
7 6 5 4 5 5 5 4 3 4 3 3 3 3 2 3 2 3 3 2 2 2 3 2 2 5 6 7 9 6 7 7 7 5 5 4 5 4 4 4 4 5 6
7 7 8 7 6 6 6 6 5 5 5 4 3 3 3 3 2 2 2 2 2 2 3 3 3 5 6 8 8 7 8 10 8 7 7 6 6 5 5 4 3 3 3
8 7 8 8 7 7 7 7 7 6 6 5 5 5 5 4 3 2 2 2 2 2 3 2 2 4 6 7 7 7 8 6 6 7 8 8 7 7 6 5 4 3 2
8 8 8 8 9 9 8 8 9 9 8 7 7 6 6 5 5 3 2 2 2 2 2 3 2 4 5 7 7 7 7 7 7 8 9 9 9 8 8 7 6 5 4
9 9 8 9 9 10 9 8 9 9 9 8 8 7 7 7 6 4 4 4 2 2 2 2 3 3 4 6 7 6 7 6 7 8 9 10 10 10 9 8 8 7 7
9 9 9 9 9 9 10 10 9 9 9 9 8 8 7 7 7 7 6 5 4 3 3 3 3 3 5 7 7 7 6 5 5 6 6 7 9 11 10 9 9 9 8
12 10 10 9 9 10 11 11 9 10 9 9 9 8 8 9 9 8 7 6 6 4 4 4 4 4 4 7 8 7 7 6 5 5 5 5 5 5 6 7 9 9 9
9 9 10 11 11 12 12 9 7 8 7 9 8 8 9 9 10 11 9 8 7 6 5 5 4 5 6 6 6 7 8 7 5 5 5 4 4 4 4 4 7 9 9
10 10 10 10 11 11 13 11 10 7 7 7 8 8 9 11 11 10 11 11 10 10 9 6 5 5 5 5 7 9 9 9 5 7 6 4 4 5 5 6 9 9 10
9 10 11 11 10 12 13 12 11 8 8 8 8 9 9 8 8 8 9 10 9 9 11 8 7 6 4 4 6 7 8 7 6 6 6 4 4 5 6 5 7 9 10
10 10 10 11 11 10 11 12 11 7 7 9 10 10 10 9 10 10 8 7 7 7 11 13 11 10 9 8 6 5 7 9 7 6 4 4 6 5 4 4 5 8 9
10 10 10 10 10 9 10 11 11 7 7 8 7 8 11 12 12 13 8 7 7 6 6 8 9 9 8 8 11 8 8 9 8 6 6 5 8 6 5 4 4 4 5
Wind_Direction
237 252 257 252 244 223 205 209 216 218 222 227 224 216 220 226 232 229 187 181 184 192 193 197 202 208 211 211 211 210 209 209 205 204 205 206 207 206 205 203 200 198 197
241 250 258 249 250 258 255 219 219 227 227 230 231 227 218 229 242 237 208 190 191 197 202 204 207 211 214 214 214 212 211 212 209 206 207 207 208 207 207 207 205 203 201
283 271 262 252 241 243 249 245 240 228 230 228 227 230 224 219 227 231 227 204 197 204 208 209 209 211 214 216 216 215 213 212 210 209 208 209 209 208 207 207 207 206 204
288 278 268 261 246 238 237 234 230 235 237 239 233 231 225 217 221 224 221 215 208 211 211 212 211 211 214 217 218 217 214 213 212 211 210 210 210 209 209 209 209 208 206
305 286 273 269 261 245 238 241 224 224 236 239 235 225 225 221 216 221 218 218 211 210 204 207 209 210 214 218 219 218 215 213 213 213 213 213 212 210 210 210 211 210 208
314 308 293 283 266 249 236 232 232 223 236 241 250 246 223 218 211 213 215 216 211 211 209 202 198 210 213 215 216 217 216 214 214 215 215 215 214 212 210 210 211 212 211
320 306 306 307 288 259 240 234 230 225 230 230 244 258 249 225 214 213 212 214 210 207 206 193 183 189 204 214 217 217 218 217 216 215 215 215 214 212 210 210 210 212 213
306 300 299 296 293 287 268 239 230 227 227 216 214 235 241 230 219 214 200 207 220 206 197 190 182 183 188 189 212 217 219 220 219 217 215 213 212 211 210 210 211 213 214
277 276 287 288 298 296 290 283 252 231 233 241 219 221 237 231 207 209 203 196 194 196 190 184 178 177 190 187 192 206 212 215 218 219 216 214 212 210 210 211 213 214 215
267 258 267 275 280 286 295 291 288 264 243 250 252 238 251 280 283 238 216 185 175 182 197 197 182 173 179 176 172 174 195 204 212 218 217 214 212 209 210 212 215 216 216
246 233 225 241 265 256 262 299 323 312 281 263 260 262 259 248 232 217 223 194 173 177 186 195 179 165 166 161 156 161 179 192 201 209 214 215 214 213 213 214 218 220 219
239 221 208 195 220 244 267 292 299 298 296 287 282 273 265 260 253 237 215 203 191 195 184 178 174 162 149 142 142 141 154 169 184 195 206 210 212 215 216 218 221 224 224
278 240 222 185 205 216 225 229 253 263 277 288 293 286 280 275 290 286 260 231 209 189 164 165 167 160 152 122 122 132 134 147 161 175 187 194 200 207 212 215 219 223 225
296 288 253 210 204 210 226 217 237 244 242 251 267 279 286 284 292 282 276 284 258 207 173 180 160 154 138 127 136 137 127 133 141 155 173 180 180 185 192 200 210 216 219
282 287 289 260 225 211 211 208 221 233 236 239 247 254 266 280 284 287 281 263 250 227 208 195 156 146 130 122 147 139 128 126 126 128 135 149 156 159 166 178 194 207 215
280 277 271 265 255 234 215 207 215 220 221 226 230 237 240 257 278 274 279 274 254 245 236 195 175 154 147 140 147 127 120 122 110 112 112 116 120 123 127 134 146 166 191
285 279 277 272 261 249 232 217 219 218 217 223 230 228 229 232 239 260 269 275 265 250 246 240 149 138 137 132 131 130 140 132 113 108 108 105 103 103 106 107 108 114 130
293 288 280 276 272 262 241 226 222 224 216 216 220 225 225 226 223 221 229 244 245 241 233 229 179 159 154 146 148 155 147 129 121 115 110 104 100 96 94 94 92 89 88
293 288 282 275 273 269 259 241 229 222 220 216 212 215 221 221 222 216 212 218 219 232 211 224 208 178 163 160 154 146 123 123 124 127 115 106 103 98 93 90 90 88 85
289 284 279 276 274 271 265 256 241 228 224 220 215 212 215 218 218 214 217 213 213 215 216 225 222 194 178 169 159 148 143 142 137 134 116 116 112 100 94 90 91 91 90
289 288 284 279 273 268 260 254 247 239 227 223 218 214 217 218 220 214 218 203 203 203 206 212 215 209 194 175 172 164 157 145 133 139 138 141 134 115 101 92 88 91 92
288 286 283 279 273 269 267 258 247 251 236 228 220 213 220 221 221 211 211 204 198 206 208 204 210 212 204 190 174 166 158 155 156 163 151 142 134 114 100 86 92 95 94
292 287 282 276 270 265 264 256 242 243 244 233 226 218 223 224 208 204 207 209 211 218 215 205 211 217 204 193 184 176 171 172 156 155 145 132 120 103 93 91 97 99 98
288 284 280 275 268 263 255 241 232 231 242 238 228 218 215 230 224 206 207 208 208 213 215 215 218 217 218 204 196 184 168 155 130 146 149 132 132 116 106 98 99 104 104
288 283 278 272 266 260 250 235 222 229 234 237 234 226 212 216 219 207 208 213 212 216 217 217 211 210 206 205 191 171 167 162 153 161 170 134 137 125 117 112 109 107 108
286 285 280 273 266 260 246 226 212 226 230 231 229 233 223 211 206 200 202 207 214 218 226 213 213 215 210 204 195 189 180 173 156 159 176 147 151 146 133 131 142 142 119